Slupsk, Poland

7:07 PM CEST on April 18, 2015 (GMT +0200)
IPOMORSK9 | | Change Station
CLOSE
Current Station
Personal Weather Station
Location: Ustka, pomorskie
Elevation: 23 ft
Nearby Weather Stations

Elev 23 ft 54.59 °N, 16.86 °E | Updated 10 seconds ago

Partly Cloudy
Partly Cloudy
45.9 °F
Feels Like 44 °F
N
3.9
Wind Variable Wind from West
Gusts 13.0 mph

Today
High -- | Low -- °F
--% Chance of Precip.
Yesterday
High -- | Low -- °F
Precip. -- in
5:44 AM 7:59 PM
Waning Crescent, 0% visible
Pressure 30.09 in
Visibility 6.2 miles
Clouds Few 3300 ft
Windchill 44 °F
Dew Point 37 °F
Humidity 70%
Rainfall 0.00 in
Snow Depth Not available.
UV 0.0 out of 12
Pollen Not available.
Air Quality Not available.
Flu Activity Not available.
METAR EPGD 181700Z 32016KT 9999 FEW033 06/M02 Q1019

More Conditions Fewer Conditions

Pressure 30.09 in
Visibility 6.2 miles
Clouds Few 3300 ft
Windchill 44 °F
Dew Point 37 °F
Humidity 70%
Rainfall 0.00 in
Snow Depth Not available.
UV 0.0 out of 12
Pollen Not available.
Air Quality Not available.
Flu Activity Not available.
METAR EPGD 181700Z 32016KT 9999 FEW033 06/M02 Q1019

More Conditions Fewer Conditions

10-Day Weather Forecast

Almanac

Astronomy

Apr. 18, 2015 Rise Set
Actual Time
Civil Twilight
Nautical Twilight
Astronomical Twilight
Moon
Length of Visible Light
Length of Day
Tomorrow will be .
, % of the Moon is Illuminated

Today's Extremes

Country Highs Country Lows

Community

WunderPhotos

Upload Photos

1,814,461 photos uploaded!

WunderBlogs® & News

Nearby

Air Quality

  Air Quality AQ Index Pollutant
Not available.

Snow Depth

Station Depth Elevation

Earthquake Activity

City Distance Mag. Time & Date
Minimum magnitude displayed is 2.5.

Coastal Water Temperatures

Place Temperature

Stations

Nearby Weather Stations

Station Location Temp. Windchill Dew Point Humidity Wind Precip. Elev Updated Type